Terminal Aerodrome Forecast
Issued by NWS

Home | Current Version | Previous Version | Text Only | Print | Product List | Glossary On
Versions: 1 2 3 4 5 6 7 8 9 10 11 12 13 14 15 16 17 18 19 20 21 22
000
FTUS43 KPAH 180300 AAA
TAFCGI
TAF AMD
KCGI 180307Z 1803/1824 00000KT P6SM SCT015 BKN150
      TEMPO 1803/1806 4SM BR BKN015
     FM180600 00000KT 3SM BR SCT002
      TEMPO 1809/1813 1/4SM FG VV002
     FM181600 27004KT P6SM SCT010 BKN025=

USA.gov is the U.S. government's official web portal to all federal, state and local government web resources and services.